• In Hungary
  • List of Countries
  • For 7 days
  • Water Temperature
  • Satellite Maps
  • Weather Map
  • News
  • Weather Widgets
  • user-avatar
    Login

    Hourly Weather Concord

    Today, 20 October, Friday

    Time Temperature Precipitation Wind Pressure Humidity
    00:00 +14°C° 0 mm 3 mps 752 mmHg 68%
    01:00 +14°C° 0 mm 3 mps 752 mmHg 72%
    02:00 +13°C° 0 mm 3 mps 753 mmHg 70%
    03:00 +12°C° 0 mm 3 mps 753 mmHg 69%
    04:00 +11°C° 0 mm 3 mps 753 mmHg 67%
    05:00 +10°C° 0 mm 3 mps 753 mmHg 66%
    06:00 +10°C° 0 mm 2 mps 754 mmHg 64%
    07:00 +9°C° 0 mm 2 mps 754 mmHg 63%
    08:00 +11°C° 0 mm 3 mps 754 mmHg 55%
    09:00 +13°C° 0 mm 4 mps 755 mmHg 48%
    10:00 +15°C° 0 mm 5 mps 755 mmHg 40%
    11:00 +16°C° 0 mm 5 mps 754 mmHg 39%
    12:00 +17°C° 0 mm 5 mps 754 mmHg 37%
    13:00 +19°C° 0 mm 5 mps 754 mmHg 35%
    14:00 +19°C° 0 mm 4 mps 754 mmHg 37%
    15:00 +18°C° 0 mm 4 mps 754 mmHg 38%
    16:00 +18°C° 0 mm 3 mps 754 mmHg 40%
    17:00 +16°C° 0 mm 3 mps 755 mmHg 44%
    18:00 +14°C° 0 mm 2 mps 755 mmHg 49%
    19:00 +13°C° 0 mm 2 mps 756 mmHg 53%
    20:00 +12°C° 0 mm 2 mps 756 mmHg 56%
    21:00 +10°C° 0 mm 2 mps 757 mmHg 58%
    22:00 +11°C° 0 mm 1 mps 757 mmHg 61%
    23:00 +10°C° 0 mm 1 mps 757 mmHg 61%

    Tomorrow, 21 October, Saturday

    Time Temperature Precipitation Wind Pressure Humidity
    00:00 +10°C° 0 mm 1 mps 758 mmHg 62%
    01:00 +10°C° 0 mm 1 mps 758 mmHg 63%
    02:00 +10°C° 0 mm 1 mps 758 mmHg 63%
    03:00 +10°C° 0 mm 1 mps 758 mmHg 63%
    04:00 +9°C° 0 mm 1 mps 758 mmHg 63%
    05:00 +10°C° 0 mm 1 mps 759 mmHg 63%
    06:00 +10°C° 0 mm 1 mps 759 mmHg 62%
    07:00 +10°C° 0 mm 1 mps 759 mmHg 62%
    08:00 +14°C° 0 mm 1 mps 759 mmHg 53%
    09:00 +17°C° 0 mm 2 mps 760 mmHg 45%
    10:00 +20°C° 0 mm 2 mps 760 mmHg 36%
    11:00 +21°C° 0 mm 2 mps 759 mmHg 35%
    12:00 +24°C° 0 mm 2 mps 759 mmHg 33%
    13:00 +25°C° 0 mm 2 mps 759 mmHg 32%
    14:00 +24°C° 0 mm 2 mps 759 mmHg 37%
    15:00 +23°C° 0 mm 1 mps 759 mmHg 43%
    16:00 +22°C° 0 mm 1 mps 759 mmHg 49%
    17:00 +20°C° 0 mm 1 mps 760 mmHg 54%
    18:00 +18°C° 0 mm 1 mps 760 mmHg 59%
    19:00 +15°C° 0 mm 1 mps 761 mmHg 64%
    20:00 +13°C° 0 mm 0 mps 761 mmHg 65%
    21:00 +13°C° 0 mm 0 mps 761 mmHg 66%
    22:00 +13°C° 0 mm 0 mps 761 mmHg 68%
    23:00 +12°C° 0 mm 0 mps 761 mmHg 70%

    Day after tomorrow, 22 October, Sunday

    Time Temperature Precipitation Wind Pressure Humidity
    00:00 +12°C° 0 mm 0 mps 761 mmHg 72%
    01:00 +11°C° 0 mm 0 mps 762 mmHg 73%
    02:00 +11°C° 0 mm 0 mps 762 mmHg 74%
    03:00 +11°C° 0 mm 0 mps 762 mmHg 74%
    04:00 +11°C° 0 mm 0 mps 762 mmHg 75%
    05:00 +11°C° 0 mm 0 mps 762 mmHg 74%
    06:00 +11°C° 0 mm 0 mps 762 mmHg 74%
    07:00 +11°C° 0 mm 0 mps 762 mmHg 73%
    08:00 +14°C° 0 mm 0 mps 762 mmHg 66%
    09:00 +18°C° 0 mm 1 mps 762 mmHg 58%
    10:00 +21°C° 0 mm 1 mps 762 mmHg 50%
    11:00 +22°C° 0 mm 1 mps 762 mmHg 47%
    12:00 +23°C° 0 mm 1 mps 762 mmHg 43%
    13:00 +24°C° 0 mm 2 mps 761 mmHg 40%
    14:00 +23°C° 0 mm 2 mps 761 mmHg 44%
    15:00 +23°C° 0 mm 1 mps 761 mmHg 48%
    16:00 +22°C° 0 mm 1 mps 760 mmHg 52%
    17:00 +20°C° 0 mm 1 mps 761 mmHg 56%
    18:00 +18°C° 0 mm 1 mps 761 mmHg 60%
    19:00 +16°C° 0 mm 1 mps 761 mmHg 65%
    20:00 +15°C° 0 mm 1 mps 761 mmHg 68%
    21:00 +14°C° 0 mm 1 mps 761 mmHg 71%
    22:00 +14°C° 0 mm 2 mps 761 mmHg 74%
    23:00 +13°C° 0 mm 2 mps 760 mmHg 77%

    23 October, Monday

    Time Temperature Precipitation Wind Pressure Humidity
    00:00 +13°C° 0 mm 2 mps 760 mmHg 81%
    01:00 +13°C° 0 mm 2 mps 760 mmHg 84%
    02:00 +12°C° 0 mm 2 mps 759 mmHg 88%
    03:00 +12°C° 0 mm 2 mps 759 mmHg 92%
    04:00 +12°C° 0 mm 1 mps 759 mmHg 95%
    05:00 +12°C° 0 mm 2 mps 759 mmHg 96%
    06:00 +13°C° 0 mm 2 mps 759 mmHg 96%
    07:00 +13°C° 0 mm 2 mps 759 mmHg 96%
    08:00 +16°C° 0 mm 2 mps 758 mmHg 83%
    09:00 +19°C° 0 mm 3 mps 758 mmHg 71%
    10:00 +21°C° 0 mm 4 mps 758 mmHg 58%
    11:00 +23°C° 0 mm 4 mps 757 mmHg 54%
    12:00 +25°C° 0 mm 4 mps 756 mmHg 51%
    13:00 +26°C° 0 mm 4 mps 755 mmHg 48%
    14:00 +25°C° 0 mm 4 mps 755 mmHg 52%
    15:00 +24°C° 0 mm 3 mps 755 mmHg 56%
    16:00 +22°C° 0 mm 3 mps 755 mmHg 60%
    17:00 +21°C° 0 mm 3 mps 755 mmHg 66%
    18:00 +19°C° 0 mm 3 mps 754 mmHg 71%
    19:00 +18°C° 0 mm 3 mps 754 mmHg 77%
    20:00 +17°C° 0 mm 3 mps 754 mmHg 80%
    21:00 +17°C° 0 mm 3 mps 754 mmHg 83%
    22:00 +17°C° 0 mm 3 mps 754 mmHg 87%
    23:00 +17°C° 0 mm 3 mps 754 mmHg 88%

    24 October, Tuesday

    Time Temperature Precipitation Wind Pressure Humidity
    00:00 +17°C° 0 mm 3 mps 753 mmHg 89%
    01:00 +17°C° 0 mm 2 mps 753 mmHg 90%
    02:00 +16°C° 0 mm 2 mps 752 mmHg 92%
    03:00 +16°C° 0 mm 2 mps 752 mmHg 93%
    04:00 +16°C° 0 mm 2 mps 752 mmHg 95%
    05:00 +17°C° 0 mm 2 mps 751 mmHg 94%
    06:00 +17°C° 0 mm 2 mps 751 mmHg 93%
    07:00 +17°C° 0 mm 2 mps 751 mmHg 93%
    08:00 +18°C° 0.1 mm 3 mps 750 mmHg 87%
    09:00 +20°C° 0.1 mm 3 mps 750 mmHg 81%
    10:00 +21°C° 0.1 mm 4 mps 750 mmHg 76%
    11:00 +22°C° 0 mm 4 mps 749 mmHg 70%
    12:00 +23°C° 0 mm 5 mps 748 mmHg 65%
    13:00 +24°C° 0 mm 6 mps 747 mmHg 59%
    14:00 +23°C° 0.2 mm 5 mps 747 mmHg 66%
    15:00 +22°C° 0.2 mm 5 mps 746 mmHg 73%
    16:00 +21°C° 0.2 mm 5 mps 746 mmHg 79%
    17:00 +21°C° 0.1 mm 4 mps 745 mmHg 83%
    18:00 +21°C° 0.1 mm 4 mps 745 mmHg 86%
    19:00 +20°C° 0.1 mm 4 mps 745 mmHg 89%
    20:00 +20°C° 0.2 mm 4 mps 744 mmHg 90%
    21:00 +20°C° 0.2 mm 4 mps 744 mmHg 90%
    22:00 +20°C° 0.2 mm 4 mps 743 mmHg 90%
    23:00 +20°C° 0.6 mm 5 mps 742 mmHg 90%

    25 October, Wednesday

    Time Temperature Precipitation Wind Pressure Humidity
    00:00 +20°C° 0.6 mm 5 mps 742 mmHg 91%
    01:00 +20°C° 0.6 mm 5 mps 741 mmHg 91%
    02:00 +20°C° 1.3 mm 6 mps 740 mmHg 91%
    03:00 +20°C° 1.3 mm 6 mps 740 mmHg 91%
    04:00 +20°C° 1.3 mm 6 mps 740 mmHg 91%
    05:00 +20°C° 0.7 mm 5 mps 740 mmHg 92%
    06:00 +20°C° 0.7 mm 5 mps 739 mmHg 93%
    07:00 +19°C° 0.7 mm 4 mps 739 mmHg 94%
    08:00 +20°C° 0.4 mm 4 mps 739 mmHg 93%
    09:00 +20°C° 0.4 mm 4 mps 739 mmHg 92%
    10:00 +20°C° 0.4 mm 4 mps 738 mmHg 92%
    11:00 +20°C° 0.3 mm 4 mps 738 mmHg 90%
    12:00 +21°C° 0.3 mm 4 mps 738 mmHg 88%
    13:00 +22°C° 0.3 mm 4 mps 738 mmHg 86%
    14:00 +21°C° 0.3 mm 4 mps 738 mmHg 87%
    15:00 +20°C° 0.3 mm 4 mps 738 mmHg 88%
    16:00 +19°C° 0.3 mm 3 mps 739 mmHg 89%
    17:00 +18°C° 0.1 mm 3 mps 740 mmHg 90%
    18:00 +17°C° 0.1 mm 2 mps 741 mmHg 91%
    19:00 +16°C° 0.1 mm 2 mps 741 mmHg 92%
    20:00 +15°C° 0 mm 2 mps 742 mmHg 93%
    21:00 +15°C° 0 mm 1 mps 742 mmHg 94%
    22:00 +14°C° 0 mm 1 mps 743 mmHg 95%
    23:00 +13°C° 0 mm 1 mps 743 mmHg 95%
    Show more